User: anonymous   Login
Location: Bothwell
(42.3833°S, 147.0000°E)
Time: 01:24:33
(UTC+10:00)
Language:

DX 1 - Orbit

View from above orbital plane
View from above orbital plane
View from above satellite
View from above satellite

Ground track
Ground track

The orbit data is extracted from the following two-line orbital elements,

1 40071U 14037C   22268.06411820  .00000692  00000-0  94572-4 0  9997
2 40071  98.3936 141.6864 0008632   6.0548 354.0775 14.81994002444094
Epoch (UTC): 25 September 2022 01:32:19
Eccentricity: 0.0008632
inclination: 98.3936°
perigee height: 617 km
apogee height: 629 km
right ascension of ascending node: 141.6864°
argument of perigee: 6.0548°
revolutions per day: 14.81994002
mean anomaly at epoch: 354.0775°
orbit number at epoch: 44409

The dashed part of the orbit path shows where the satellite is in the earth's shadow,  

DLR